MicroStrategy Gross Margin 2006-2021 | MSTR

Current and historical gross margin for MicroStrategy (MSTR) over the last 10 years. The current gross profit margin for MicroStrategy as of June 30, 2021 is %.
MicroStrategy Gross Margin Historical Data
Date TTM Revenue TTM Gross Profit Gross Margin
2021-06-30 $0.51B $0.42B 82.81%
2021-03-31 $0.49B $0.40B 82.11%
2020-12-31 $0.48B $0.39B 81.46%
2020-09-30 $0.48B $0.39B 80.54%
2020-06-30 $0.48B $0.38B 79.62%
2020-03-31 $0.48B $0.38B 79.50%
2019-12-31 $0.49B $0.39B 79.26%
2019-09-30 $0.49B $0.38B 78.97%
2019-06-30 $0.49B $0.39B 79.26%
2019-03-31 $0.49B $0.39B 79.59%
2018-12-31 $0.50B $0.40B 80.12%
2018-09-30 $0.50B $0.41B 80.68%
2018-06-30 $0.51B $0.41B 80.63%
2018-03-31 $0.50B $0.41B 80.75%
2017-12-31 $0.50B $0.41B 81.11%
2017-09-30 $0.51B $0.41B 81.34%
2017-06-30 $0.51B $0.42B 81.68%
2017-03-31 $0.52B $0.42B 81.82%
2016-12-31 $0.51B $0.42B 81.71%
2016-09-30 $0.52B $0.42B 81.78%
2016-06-30 $0.52B $0.42B 81.40%
2016-03-31 $0.53B $0.43B 81.37%
2015-12-31 $0.53B $0.43B 80.79%
2015-09-30 $0.54B $0.43B 79.48%
2015-06-30 $0.56B $0.44B 78.46%
2015-03-31 $0.57B $0.44B 77.03%
2014-12-31 $0.58B $0.44B 76.55%
2014-09-30 $0.60B $0.46B 77.05%
2014-06-30 $0.59B $0.45B 77.04%
2014-03-31 $0.58B $0.45B 76.71%
2013-12-31 $0.58B $0.44B 75.87%
2013-09-30 $0.57B $0.42B 74.91%
2013-06-30 $0.56B $0.42B 74.29%
2013-03-31 $0.56B $0.42B 74.69%
2012-12-31 $0.57B $0.43B 75.22%
2012-09-30 $0.54B $0.41B 76.10%
2012-06-30 $0.55B $0.42B 76.00%
2012-03-31 $0.55B $0.42B 76.13%
2011-12-31 $0.54B $0.41B 75.79%
2011-09-30 $0.54B $0.40B 74.68%
2011-06-30 $0.51B $0.39B 75.10%
2011-03-31 $0.48B $0.37B 75.41%
2010-12-31 $0.46B $0.35B 76.48%
2010-09-30 $0.42B $0.33B 77.73%
2010-06-30 $0.41B $0.33B 79.81%
2010-03-31 $0.39B $0.32B 81.07%
2009-12-31 $0.38B $0.31B 82.28%
2009-09-30 $0.37B $0.30B 82.83%
2009-06-30 $0.35B $0.29B 82.20%
2009-03-31 $0.36B $0.29B 82.25%
2008-12-31 $0.36B $0.30B 82.27%
2008-09-30 $0.36B $0.30B 82.92%
2008-06-30 $0.36B $0.31B 84.30%
2008-03-31 $0.35B $0.30B 84.66%
2007-12-31 $0.34B $0.29B 85.07%
2007-09-30 $0.33B $0.28B 85.93%
2007-06-30 $0.31B $0.27B 85.35%
2007-03-31 $0.31B $0.27B 85.81%
2006-12-31 $0.31B $0.27B 86.45%
2006-09-30 $0.30B $0.26B 86.24%
2006-06-30 $0.29B $0.25B 86.71%
2006-03-31 $0.28B $0.24B 87.00%
2005-12-31 $0.27B $0.23B 86.57%
Sector Industry Market Cap Revenue
Computer and Technology Computer Software $5.988B $0.481B
MicroStrategy Incorporated, a leading worldwide provider of business intelligence software, today announced that GT Nexus has selected MicroStrategy to power the customer-facing analytics and reporting capabilities on its Global Logistics portal. The GT Nexus portal is an on demand technology platform that is used by importers, exporters, transportation carriers, suppliers, banks, and other partners to manage goods that are moving around the world. The GT Nexus system captures and stores hard-to-get data associated with global supply chains, and then fuels a range of Web applications that can be used by constituents to lower supply chain costs and improve control. MicroStrategy will help GT Nexus to deliver a wide range of analytics and reporting capabilities to its customers, which include Home Depot, Kmart, Xerox, Weyerhaeuser, and American Eagle Outfitters.
Stock Name Country Market Cap PE Ratio
Microsoft (MSFT) United States $2253.490B 37.63
Adobe (ADBE) United States $311.794B 67.19
Salesforce, Inc (CRM) United States $255.059B 76.18
Oracle (ORCL) United States $236.551B 20.42
SAP SE (SAP) Germany $176.069B 22.39
Intuit (INTU) United States $153.437B 74.91
Dassault Systemes SA (DASTY) France $78.049B 68.53
Autodesk (ADSK) United States $63.350B 105.94
VMware (VMW) United States $58.487B 27.49
Synopsys (SNPS) United States $49.646B 67.82
Cadence Design Systems (CDNS) United States $45.290B 63.42
ANSYS (ANSS) United States $31.815B 63.97
SS&C Technologies Holdings (SSNC) United States $17.957B 16.10
Nuance Communications (NUAN) United States $17.330B 153.06
PTC (PTC) United States $14.454B 50.47
Open Text (OTEX) Canada $13.906B 15.84
Citrix Systems (CTXS) United States $13.861B 32.62
Pegasystems (PEGA) United States $10.746B 0.00
Manhattan Associates (MANH) United States $9.934B 105.87
Aspen Technology (AZPN) United States $8.519B 0.00
Trend Micro (TMICY) Japan $8.059B 30.14
Descartes Systems Group (DSGX) Canada $7.076B 100.75
BlackBerry (BB) Canada $5.687B 250.75
Cornerstone OnDemand (CSOD) United States $3.815B 22.15
ACI Worldwide (ACIW) United States $3.677B 21.44
Blackbaud (BLKB) United States $3.401B 57.98
CommVault Systems (CVLT) United States $3.396B 88.13
Verint Systems (VRNT) United States $2.904B 21.04
Progress Software (PRGS) United States $2.017B 15.57
Bottomline Technologies (EPAY) United States $1.855B 176.70
QAD (QADB) United States $1.838B 121.51
PROS Holdings (PRO) United States $1.760B 0.00
Sapiens (SPNS) Israel $1.582B 28.31
Canaan (CAN) China $1.267B 0.00
OptimizeRx (OPRX) United States $1.260B 650.00
Avid Technology (AVID) United States $1.228B 30.59
Magic Software Enterprises (MGIC) Israel $1.014B 24.62
Simulations Plus (SLP) United States $0.880B 76.67
American Software (AMSWA) United States $0.811B 87.00
Icad Inc (ICAD) United States $0.261B 0.00
Smith Micro Software (SMSI) United States $0.249B 0.00
ServiceSource (SREV) United States $0.131B 0.00
Park City (PCYG) United States $0.105B 48.91
Neonode (NEON) Sweden $0.069B 0.00
BSQUARE (BSQR) United States $0.050B 0.00
NetSol Technologies (NTWK) United States $0.045B 17.95
GSE Systems (GVP) United States $0.028B 0.00